DELTA 1 DEB, 14528

Orbit data source: Space-Track

DELTA 1 DEB, 14528 is space debris in LEO originally from a launch on Thu, 14 Jul 1977 UTC launched from the Air Force Eastern Test Range (AFETR). Debris objects in space refer to the collection of defunct objects orbiting the Earth. Examples of debris include non-operational satellites, rocket bodies, and fragments generated from explosions, collisions, or faulty payload assembly.

Loading next visibility...
Identifier
14528, 1977-065FP
Orbit
LEO
Last TLE update
3 days ago
Origin
Manufacturer
Unknown
Mission
Spacecraft
Bus & Motor
Unknown
Mass
Unknown
Launch date (UTC)
1977-07-14 (48 years ago)
Launch vehicle
Unknown
Launch site
Air Force Eastern Test Range (AFETR)
Object type
Payload
Rocket body
Debris
Shape & HBR
Unknown
Radar Cross Section
Small (<0.1 m²)

Expand to show TLE details & history

TLE from 3 days ago
0 DELTA 1 DEB
1 14528U 77065FP  25126.07891324  .00000233  00000-0  96115-3 0  9998
2 14528  28.0764  37.7556 0311908 351.3295   8.1926 12.46478673525266
Epoch: 2025-05-06T01:53Z
Definitive object data (Epoch: 2025-05-06T01:53:38.103Z)
Latitude
0.00001°
Longitude
145.16359°
Altitude
1,235.343 km
Speed
7.35 km/s
True Right ascension
02h 31m 01s
True Declination
0° 00' 00"
Sunlit
Object was in daylight at TLE epoch
Visualization TLE readout
Latitude
-10.72622°
Longitude
110.86722°
Altitude
1,280.733 km
Speed
7.308 km/s
Apparent Right ascension
01h 14m 41s
Apparent Declination
-25° 02' 48"
Sunlit
Object is in daylight
Visualization observer readout
Local Sidereal Time
14:49:46
Azimuth
60.42° ENE
Elevation
-65.17°
Doppler factor
1
Orbital elements
Apogee altitude
1,728.208 km
Perigee altitude
1,237.817 km
Semi-major axis
7,861.15 km
Eccentricity
0.0311908
Inclination
28.0764°
RAAN
37.7556°
Arg. of periapsis
351.3295°
True anomaly
8.72233°
Mean anomaly
8.1926°
Eccentric anomaly
8.45537°
Mean motion
3.11397 °/min
BSTAR
0.00096115
Orbital period
115.61 mins
Loading maneuver chart data...
Loading SW <> Apogee altitude chart data...

DELTA 1 DEB Visibility forecast

Observer location: undefined°, undefined°

Span
Click to sort rows by Start time (UTC) header in descending order
Start Az.
Max El. time (UTC)
Max El. Az.
Max El.
End time (UTC)
End Az.
11 mins2025-05-09 20:27:54.118Z204.879° SW2025-05-09 20:32:54.118Z163.107° S21.433°2025-05-09 20:38:54.118Z113.477° SE
14 mins2025-05-09 22:29:54.118Z231.882° WSW2025-05-09 22:35:54.118Z174.551° S30.694°2025-05-09 22:43:54.118Z111.387° ESE
14 mins2025-05-10 00:32:54.118Z244.352° WSW2025-05-10 00:38:54.118Z190.007° SSW29.712°2025-05-10 00:46:54.118Z129.884° SE
11 mins2025-05-10 02:36:54.118Z240.305° WSW2025-05-10 02:41:54.118Z203.74° SW19.793°2025-05-10 02:47:54.118Z163.461° S
|